Stations météo

réclame
Mon MeteoGroup
Europlatform, Pays-Bas (6321): Température de l'air & dewpoint: 11.12.2018 06:00:00 - 17.12.2018 06:00:00 (CET)Europlatform, Pays-Bas (6321): water temperature: 11.12.2018 06:00:00 - 17.12.2018 06:00:00 (CET)Europlatform, Pays-Bas (6321): Vitesse du vent & gusts: 11.12.2018 06:00:00 - 17.12.2018 06:00:00 (CET)Europlatform, Pays-Bas (6321): Direction du vent: 11.12.2018 06:00:00 - 17.12.2018 06:00:00 (CET)Europlatform, Pays-Bas (6321): reduced air pressure: 11.12.2018 06:00:00 - 17.12.2018 06:00:00 (CET)Europlatform, Pays-Bas (6321): visibility: 11.12.2018 06:00:00 - 17.12.2018 06:00:00 (CET)
Date & Time tt [°C] td [°C] tw [°C] ff [km/h] ff [knt] fx [km/h] fx [knt] dd ppp [hPa] vv [km]
17.12.2018 06:00:00 9,0 6,6 7,0 41 22 47 25 WSW 1010,1 10
17.12.2018 05:00:00 8,3 6,9 7,1 41 22 43 23 S 1009,1 9
17.12.2018 04:00:00 7,3 6,3 7,0 42 23 47 25 SSE 1009,2 5
17.12.2018 03:00:00 7,0 6,1 7,0 39 21 40 21 SSE 1009,3 5
17.12.2018 02:00:00 6,4 5,8 7,0 39 21 43 23 SSE 1009,5 4,4
17.12.2018 01:00:00 5,8 5,2 7,0 41 22 43 23 SSE 1009,9 5
17.12.2018 00:00:00 5,5 4,8 7,0 44 24 50 27 SSE 1010,1 4,9
16.12.2018 23:00:00 5,0 4,4 7,0 44 24 47 25 SSE 1010,2 4,8
16.12.2018 22:00:00 5,0 4,6 7,0 39 21 40 21 SSE 1010,1 2,4
16.12.2018 21:00:00 4,9 4,5 7,0 31 17 36 19 SSE 1010,1 3,5
16.12.2018 20:00:00 6,2 5,3 7,0 31 17 32 18 S 1009,8 6
16.12.2018 19:00:00 6,6 5,8 7,0 29 16 36 19 S 1009,8 5
16.12.2018 18:00:00 6,7 6,0 7,0 34 18 40 21 S 1009,2 5
16.12.2018 17:00:00 7,9 7,1 7,0 29 16 32 18 S 1008,8 5
16.12.2018 16:00:00 8,3 7,2 7,0 28 15 29 16 S 1008,5 10
16.12.2018 15:00:00 8,6 7,3 7,0 28 15 29 16 S 1008,3 10
16.12.2018 14:00:00 8,7 7,4 7,0 28 15 32 18 S 1008,2 10
16.12.2018 13:00:00 8,1 7,0 7,0 28 15 32 18 SSW 1008,4 10
16.12.2018 12:00:00 7,5 6,5 7,0 24 13 29 16 S 1008,3 9
16.12.2018 11:00:00 7,4 6,5 7,0 31 17 36 19 S 1008,5 7
16.12.2018 10:00:00 7,4 6,8 7,0 35 19 36 19 SSW 1008,1 5
16.12.2018 09:00:00 6,6 6,1 7,0 39 21 43 23 S 1007,7 2,7
16.12.2018 08:00:00 5,7 5,1 7,0 41 22 43 23 S 1007,0 3,4
16.12.2018 07:00:00 5,4 4,4 7,0 41 22 43 23 S 1006,9 6
16.12.2018 06:00:00 5,5 4,2 7,0 41 22 43 23 S 1006,8 7
16.12.2018 05:00:00 5,1 3,9 7,0 42 23 47 25 S 1006,7 8
16.12.2018 04:00:00 4,2 3,0 7,0 46 25 50 27 S 1006,6 7
16.12.2018 03:00:00 3,8 2,5 7,0 54 29 58 31 SSE 1007,2 8
16.12.2018 02:00:00 3,2 1,9 7,0 57 31 61 33 SSE 1006,9 6
16.12.2018 01:00:00 3,2 1,6 7,0 63 34 68 37 SSE 1007,2 7
16.12.2018 00:00:00 2,4 1,4 7,3 63 34 68 37 SSE 1007,4 2,6
15.12.2018 23:00:00 2,0 0,9 7,3 65 35 72 39 SE 1007,7 3,0
15.12.2018 22:00:00 1,5 -0,5 7,0 65 35 68 37 SE 1008,6 5
15.12.2018 21:00:00 2,2 -1,1 7,3 65 35 68 37 SE 1009,5 6
15.12.2018 20:00:00 1,8 -3,0 7,0 67 36 72 39 SE 1010,3 10
15.12.2018 19:00:00 2,4 -2,4 7,0 68 37 72 39 SE 1012,0 10
15.12.2018 18:00:00 2,3 -2,6 7,0 61 33 65 35 SE 1013,4 10
15.12.2018 17:00:00 1,8 -3,6 7,0 57 31 61 33 SE 1014,8 10
15.12.2018 16:00:00 2,4 -2,5 7,0 54 29 61 33 SE 1016,6 10
15.12.2018 15:00:00 1,9 -4,1 7,0 50 27 54 29 SE 1017,3 10
15.12.2018 14:00:00 1,9 -4,3 8,0 48 26 54 29 SE 1018,9 10
15.12.2018 13:00:00 1,8 -5,0 7,0 44 24 50 27 SE 1020,4 10
15.12.2018 12:00:00 1,9 -5,4 8,0 42 23 50 27 SE 1021,2 10
15.12.2018 11:00:00 1,9 -5,1 8,0 42 23 47 25 SE 1022,5 10
15.12.2018 10:00:00 2,1 -4,2 8,0 39 21 47 25 SE 1022,8 10
15.12.2018 09:00:00 1,8 -4,8 8,0 34 18 40 21 SE 1022,7 10
15.12.2018 08:00:00 2,0 -4,6 8,0 29 16 40 21 SE 1023,3 10
15.12.2018 07:00:00 1,7 -5,7 8,0 37 20 43 23 SE 1023,3 10
15.12.2018 06:00:00 2,1 -4,6 8,0 28 15 40 21 ESE 1023,6 10
15.12.2018 05:00:00 2,4 -4,8 8,0 26 14 36 19 ESE 1023,8 10
15.12.2018 04:00:00 2,8 -4,7 8,0 24 13 32 18 ESE 1024,3 10
15.12.2018 03:00:00 3,0 -3,3 8,0 26 14 32 18 SE 1024,6 10
15.12.2018 02:00:00 2,9 -3,3 8,0 24 13 29 16 ESE 1024,5 10
15.12.2018 01:00:00 2,8 -5,2 8,0 21 11 29 16 SSE 1025,0 10
15.12.2018 00:00:00 2,8 -5,1 8,0 18 10 32 18 ESE 1025,0 10
14.12.2018 23:00:00 2,7 -4,9 8,0 26 14 32 18 ESE 1024,8 10
14.12.2018 22:00:00 3,0 -4,3 8,0 31 17 36 19 ESE 1024,6 10
14.12.2018 21:00:00 2,9 -4,0 8,0 26 14 32 18 E 1024,7 10
14.12.2018 20:00:00 3,2 -3,6 8,0 26 14 32 18 ESE 1025,0 10
14.12.2018 19:00:00 3,6 -4,1 8,0 24 13 32 18 E 1025,2 10
14.12.2018 18:00:00 3,4 -3,6 8,0 24 13 29 16 E 1025,1 10
14.12.2018 17:00:00 3,6 -3,0 8,0 21 11 25 14 E 1024,9 10
14.12.2018 16:00:00 3,7 -2,8 8,0 18 10 22 12 E 1024,7 10
14.12.2018 15:00:00 3,6 -1,8 8,0 22 12 25 14 E 1023,9 10
14.12.2018 14:00:00 3,5 -2,5 8,0 24 13 29 16 ENE 1023,6 10
14.12.2018 13:00:00 3,6 -2,0 8,0 26 14 32 18 E 1023,8 10
14.12.2018 12:00:00 3,6 -2,0 8,0 26 14 32 18 E 1023,6 10
14.12.2018 11:00:00 3,7 -2,3 8,0 26 14 32 18 E 1024,0 10
14.12.2018 10:00:00 3,5 -1,7 8,0 24 13 32 18 E 1024,0 10
14.12.2018 09:00:00 3,6 -0,1 8,0 26 14 29 16 E 1023,7 10
14.12.2018 08:00:00 3,6 -0,3 8,0 24 13 32 18 E 1023,3 10
14.12.2018 07:00:00 3,7 0,2 8,0 24 13 32 18 ENE 1022,9 10
14.12.2018 06:00:00 3,6 -0,7 8,0 24 13 29 16 ENE 1022,5 10
14.12.2018 05:00:00 3,5 -0,6 8,0 28 15 32 18 ENE 1022,2 10
14.12.2018 04:00:00 3,8 -0,5 8,0 29 16 32 18 E 1022,3 10
14.12.2018 03:00:00 3,9 -1,0 8,0 28 15 32 18 E 1022,6 10
14.12.2018 02:00:00 3,6 -1,0 8,0 34 18 40 21 E 1022,4 10
14.12.2018 01:00:00 4,1 -0,9 8,0 34 18 43 23 E 1022,2 10
14.12.2018 00:00:00 4,0 -2,7 8,0 35 19 40 21 E 1022,3 10
13.12.2018 23:00:00 4,0 -2,7 8,0 37 20 43 23 E 1022,0 10
13.12.2018 22:00:00 3,8 -0,6 8,0 39 21 43 23 E 1022,2 10
13.12.2018 21:00:00 3,9 -1,2 8,0 39 21 43 23 E 1021,7 10
13.12.2018 20:00:00 3,6 -0,7 8,0 39 21 47 25 E 1021,6 10
13.12.2018 19:00:00 3,6 -1,0 8,0 42 23 47 25 E 1021,0 10
13.12.2018 18:00:00 3,3 -1,4 8,0 44 24 47 25 E 1020,6 10
13.12.2018 17:00:00 3,8 -0,7 8,0 41 22 47 25 E 1020,7 10
13.12.2018 16:00:00 3,9 -1,6 8,0 37 20 43 23 E 1020,2 10
13.12.2018 15:00:00 4,3 -2,2 8,0 37 20 40 21 E 1019,8 10
13.12.2018 14:00:00 4,3 -1,1 8,0 35 19 40 21 E 1020,0 10
13.12.2018 13:00:00 3,8 -0,1 8,0 35 19 43 23 E 1020,4 10
13.12.2018 12:00:00 4,1 -0,3 8,0 41 22 43 23 E 1020,6 10
13.12.2018 11:00:00 3,8 1,0 8,0 39 21 43 23 E 1021,1 10
13.12.2018 10:00:00 3,9 0,8 8,0 41 22 47 25 E 1020,8 10
13.12.2018 09:00:00 4,6 0,5 8,0 44 24 47 25 E 1020,7 10
13.12.2018 08:00:00 4,6 0,8 8,0 39 21 43 23 E 1020,7 10
13.12.2018 07:00:00 4,5 0,8 8,0 32 18 43 23 E 1020,7 27
13.12.2018 06:00:00 4,8 -0,6 8,0 37 20 40 21 E 1020,9 10
13.12.2018 05:00:00 5,0 0,6 8,0 39 21 43 23 E 1021,1 10
13.12.2018 04:00:00 4,7 0,6 8,0 41 22 47 25 E 1021,7 10
13.12.2018 03:00:00 4,9 1,5 8,0 44 24 50 27 E 1021,8 10
13.12.2018 02:00:00 5,1 1,2 8,0 44 24 47 25 E 1022,0 10
13.12.2018 01:00:00 4,9 0,9 8,0 46 25 50 27 E 1022,4 10
13.12.2018 00:00:00 4,8 0,6 8,0 43 23 50 27 E 1022,7 30
12.12.2018 23:00:00 5,1 0,7 8,0 41 22 50 27 E 1023,1 10
12.12.2018 22:00:00 5,2 -1,0 8,0 42 23 47 25 E 1023,4 10
12.12.2018 21:00:00 5,0 -1,1 8,0 37 20 43 23 E 1023,8 10
12.12.2018 20:00:00 4,9 -0,7 8,0 37 20 40 21 E 1024,1 10
12.12.2018 19:00:00 5,3 -0,4 8,0 31 17 36 19 E 1024,2 10
12.12.2018 18:00:00 5,4 1,7 8,0 29 16 32 18 ESE 1024,4 29
12.12.2018 17:00:00 5,9 2,2 8,0 26 14 32 18 E 1024,6 10
12.12.2018 16:00:00 5,9 1,9 8,0 24 13 25 14 E 1024,4 10
12.12.2018 15:00:00 6,1 2,0 8,0 24 13 25 14 E 1024,6 10
12.12.2018 14:00:00 6,0 2,1 7,9 18 10 - - E 1025,1 10
12.12.2018 13:00:00 6,1 2,1 8,0 18 10 - - E 1025,6 28
12.12.2018 12:00:00 - - - - - - - - - -
12.12.2018 11:00:00 6,9 2,1 - - - - - - 1026,1 -
12.12.2018 10:00:00 6,9 2,3 - - - - - - 1026,0 -
12.12.2018 09:00:00 6,8 1,8 - - - - - - 1025,6 -
12.12.2018 08:00:00 6,9 2,1 - - - - - - 1025,3 -
12.12.2018 07:00:00 7,0 1,6 - - - - - - 1025,1 -
12.12.2018 06:00:00 7,2 1,8 - - - - - - 1025,0 -
12.12.2018 05:00:00 7,3 1,8 - - - - - - 1025,0 -
12.12.2018 04:00:00 7,3 1,8 - - - - - - 1025,1 -
12.12.2018 03:00:00 7,3 2,2 - - - - - - 1025,0 -
12.12.2018 02:00:00 7,5 1,3 - - - - - - 1024,7 -
12.12.2018 01:00:00 7,4 0,8 - - - - - - 1024,7 -
12.12.2018 00:00:00 7,8 -0,6 - - - - - - 1025,1 -
11.12.2018 23:00:00 7,7 -0,8 - - - - - - 1025,2 -
11.12.2018 22:00:00 7,7 -0,8 - - - - - - 1025,0 -
11.12.2018 21:00:00 7,7 -1,2 - - - - - - 1025,1 -
11.12.2018 20:00:00 7,6 -1,3 - - - - - - 1025,1 -
11.12.2018 19:00:00 7,8 -1,2 - - - - - - 1025,0 -
11.12.2018 18:00:00 7,8 -0,7 - - - - - - 1024,8 -
11.12.2018 17:00:00 7,7 -1,5 - - - - - - 1024,9 -
11.12.2018 16:00:00 7,9 -0,7 - - - - - - 1024,8 -
11.12.2018 15:00:00 8,0 -0,1 - - - - - - 1024,9 -
11.12.2018 14:00:00 8,0 -0,2 - - - - - - 1025,0 -
11.12.2018 13:00:00 8,2 0,5 - - - - - - 1025,2 -
11.12.2018 12:00:00 8,1 0,4 8,0 15 8 22 12 NW 1025,6 10
11.12.2018 11:00:00 8,2 0,1 8,0 16 9 22 12 NW 1025,9 10
11.12.2018 10:00:00 8,0 -1,0 8,0 22 12 25 14 NW 1025,6 10
11.12.2018 09:00:00 7,9 -0,2 8,0 21 11 32 18 NNW 1025,5 10
11.12.2018 08:00:00 7,8 -0,4 8,0 21 11 29 16 NNW 1025,2 10
11.12.2018 07:00:00 7,8 -0,3 8,0 28 15 32 18 NW 1025,1 10
11.12.2018 06:00:00 7,8 -0,3 8,0 26 14 32 18 WNW 1025,3 10

tt = Température de l'air
td = dewpoint
tw = water temperature
ff = Vitesse du vent
fx = gusts
dd = Direction du vent
ppp = reduced air pressure
vv = visibility

stations d'obs. à proximité